SCP
1 1 2 2 2 2 1 1 1 1 1 2 3 3 3 3 3 4 4 3 3 2 2 2 2 2 1 1 1 1 1 1 1 0 0 1 1 1 0 1 1 1 1
2 2 2 2 1 1 1 2 2 1 1 2 3 3 3 3 4 4 3 3 2 2 2 2 2 2 1 1 1 1 1 1 1 1 0 0 0 0 0 0 1 1 1
2 2 2 2 1 1 2 2 2 2 2 2 2 3 3 4 4 4 3 2 2 2 2 2 2 2 1 1 1 1 1 1 1 0 0 0 0 0 0 1 1 1 1
2 2 2 2 2 1 2 2 2 2 2 2 3 3 4 5 5 3 2 2 1 1 1 1 1 1 1 1 1 1 1 1 1 0 0 0 0 0 0 1 1 1 1
2 2 2 2 2 2 2 2 2 2 2 3 4 4 5 5 5 3 2 2 1 1 1 1 1 1 1 1 1 1 1 1 1 0 0 0 0 0 1 1 1 1 1
2 2 2 2 2 2 2 2 2 2 2 3 4 5 6 6 4 3 2 1 1 1 1 1 1 1 1 1 1 1 1 1 1 0 0 0 0 1 1 1 2 2 1
2 2 2 2 2 2 2 2 2 2 2 3 4 5 5 5 4 2 2 1 1 1 1 1 1 1 1 1 1 1 1 1 1 0 0 0 0 1 1 1 2 2 1
1 1 1 2 2 2 2 2 2 2 2 2 3 3 4 4 3 2 2 1 1 1 1 1 1 1 1 1 1 1 1 1 1 0 0 0 0 0 1 2 2 2 2
0 0 1 1 1 2 2 1 1 1 1 2 2 2 2 2 2 2 1 1 1 2 2 2 2 1 1 1 1 1 1 1 1 0 0 0 0 1 1 2 2 2 2
0 0 0 1 1 1 2 1 1 1 1 1 2 2 2 2 2 1 1 1 2 2 2 2 2 1 1 1 1 1 1 1 1 0 0 0 0 1 1 2 2 2 2
0 0 0 0 1 1 1 1 1 1 1 1 2 2 2 2 1 1 1 1 2 2 2 2 1 1 1 1 1 1 1 1 1 1 1 1 1 1 2 2 2 1 2
0 0 0 0 1 1 1 1 1 1 1 1 1 2 2 1 1 1 1 1 1 1 1 1 1 1 1 1 1 1 1 1 1 1 1 1 1 1 2 2 2 2 2
1 0 0 0 1 1 1 1 1 1 1 1 1 1 1 1 1 1 1 1 1 1 1 1 0 0 0 0 0 0 0 0 0 0 1 1 1 1 2 2 2 2 2
1 1 0 0 1 1 1 1 1 1 1 1 1 1 1 1 1 0 0 0 0 0 0 0 0 0 0 0 0 0 0 0 0 0 0 1 1 1 2 2 3 3 2
1 1 1 1 1 1 1 1 1 1 1 1 1 1 2 1 1 0 0 0 0 0 0 0 0 0 0 0 0 0 0 0 0 0 0 1 1 1 2 3 3 3 3
1 1 1 1 1 1 1 1 1 1 1 1 2 2 2 2 1 1 0 0 0 0 0 0 0 0 0 0 0 0 0 0 0 0 0 1 1 1 2 2 2 2 2
1 2 2 2 2 1 1 1 1 1 1 2 2 2 2 2 2 1 1 1 0 0 0 0 0 0 0 0 0 0 0 0 0 0 0 1 1 1 1 2 2 2 2
2 2 3 3 2 2 2 1 1 1 1 2 3 2 2 2 2 1 1 1 1 1 0 0 0 0 0 0 0 0 0 0 0 1 1 1 1 1 1 1 2 2 1
2 3 3 3 3 2 2 2 2 2 2 2 3 3 3 3 2 2 2 1 1 1 1 0 0 0 0 0 0 0 0 0 0 1 1 1 1 1 1 1 1 2 1
3 3 3 2 2 2 2 2 2 2 2 2 3 3 3 3 3 3 2 2 2 1 1 0 0 0 0 0 0 0 0 0 0 0 1 1 1 1 1 1 1 1 1
3 3 3 2 2 2 2 2 2 2 2 2 3 3 3 3 3 3 3 3 2 2 1 1 0 0 1 0 0 0 0 0 0 1 1 1 1 1 1 1 1 1 1
3 3 3 2 2 2 2 2 2 2 2 2 2 2 2 3 3 4 4 3 3 3 2 1 1 1 1 0 0 0 0 0 0 1 1 1 1 1 1 1 1 0 0
3 2 2 2 3 2 2 2 2 2 2 2 2 2 2 2 2 3 3 4 3 3 2 1 1 1 0 0 0 0 0 0 0 0 0 0 0 0 0 1 0 0 0
2 2 2 3 3 3 3 3 3 3 3 2 2 2 1 1 2 2 3 3 3 3 2 2 1 1 1 0 0 0 0 0 0 0 0 0 0 0 0 0 1 0 0
3 3 3 4 4 4 4 4 4 4 3 3 2 2 1 1 2 2 2 2 2 3 2 2 1 1 1 0 0 0 0 0 0 0 0 0 0 0 0 0 0 0 0
3 3 3 4 4 4 4 4 4 5 4 3 2 2 1 2 2 2 2 2 2 2 2 2 1 1 1 1 0 0 0 0 0 0 0 0 0 0 0 0 0 0 0
Wind_Speed
2 3 7 9 10 10 10 11 11 12 13 14 14 14 14 14 14 13 13 14 14 14 14 13 13 13 13 12 12 12 12 12 12 12 12 11 11 11 11 10 9 6 9
6 5 8 9 11 11 12 12 12 13 14 15 14 14 13 13 13 13 13 13 13 13 13 13 12 12 12 12 12 12 12 11 11 11 11 10 10 10 9 9 9 6 9
6 5 7 10 11 12 12 12 12 13 13 14 13 13 12 12 11 12 12 13 13 13 13 13 12 11 11 11 11 11 10 10 10 9 8 4 5 8 8 9 9 9 8
7 5 7 10 12 12 12 12 12 12 13 12 12 11 11 11 11 11 12 12 12 13 12 12 11 11 10 10 10 9 9 9 9 8 4 3 3 7 8 8 8 8 7
6 5 7 11 12 12 12 12 12 12 12 12 11 11 11 10 10 10 11 11 12 12 12 11 11 10 10 9 8 8 7 8 8 6 3 3 2 6 7 7 8 7 7
6 5 6 12 12 12 12 12 12 12 11 11 11 10 10 10 9 10 11 11 11 11 11 11 11 10 9 9 8 7 6 7 6 3 3 3 3 6 7 7 8 7 7
6 5 6 11 12 11 11 11 11 11 11 11 10 10 9 9 9 10 10 11 10 10 10 11 10 9 9 8 7 6 6 6 4 3 3 3 4 7 7 7 7 7 7
8 6 5 10 11 11 11 11 11 11 10 10 9 9 9 9 9 10 10 10 10 10 10 10 10 9 8 7 6 6 5 5 4 4 3 3 6 8 8 7 7 7 6
7 6 4 5 7 9 10 10 10 10 9 9 9 9 9 8 8 8 8 9 10 9 9 9 9 8 7 7 6 5 5 6 3 3 4 3 6 8 8 7 7 7 6
6 5 5 4 4 4 5 9 9 9 8 8 8 7 7 7 7 7 7 8 8 8 8 8 7 7 7 6 6 5 5 5 2 2 2 3 7 8 8 7 7 7 6
5 5 5 5 4 4 4 7 7 8 7 6 5 6 5 2 3 4 6 7 7 7 7 6 6 6 5 5 5 4 3 2 2 1 2 4 7 8 7 7 6 6 6
6 5 5 5 5 4 4 4 3 3 3 3 2 3 2 2 2 4 5 7 7 6 5 5 4 3 2 1 3 3 1 2 2 2 2 6 7 7 7 6 6 6 5
6 6 5 5 5 5 3 3 2 2 2 2 3 3 3 2 2 2 2 2 2 3 1 2 1 1 0 1 1 2 2 2 1 2 3 7 8 8 7 7 7 6 6
6 6 5 4 4 4 4 3 3 2 2 2 2 3 3 2 2 2 1 1 1 1 1 1 1 0 0 1 2 2 2 2 2 1 3 7 8 7 7 7 7 7 7
6 5 4 4 4 4 4 3 4 3 3 3 2 3 3 3 3 3 2 1 1 1 1 1 1 1 1 1 2 2 3 3 3 3 2 7 8 7 8 8 8 7 7
6 5 4 4 4 5 4 3 3 3 3 3 2 3 4 3 3 3 2 2 2 2 2 2 2 2 1 1 1 2 2 3 3 3 3 4 7 8 8 8 8 8 8
7 5 5 4 4 5 4 4 3 3 3 3 2 3 3 3 3 3 3 2 2 2 2 1 1 1 1 1 2 2 2 3 3 3 3 2 3 7 8 8 8 8 8
7 6 5 5 5 4 4 3 3 3 3 3 2 2 3 3 3 3 2 2 1 1 2 1 1 1 1 1 1 2 2 2 3 3 3 3 3 3 6 8 9 8 8
7 7 5 5 4 4 3 3 3 3 3 2 2 2 2 3 3 3 2 1 1 1 1 2 1 1 1 1 1 1 1 2 2 3 4 4 4 3 3 5 8 8 9
7 7 6 5 4 3 3 3 2 2 2 1 1 2 2 2 3 2 2 2 2 1 1 1 1 1 1 1 1 1 2 2 1 2 3 3 3 4 4 4 3 5 9
7 6 5 5 4 3 2 2 2 1 1 1 1 2 2 3 3 2 2 1 1 2 2 2 1 1 1 1 1 2 2 2 1 2 2 2 3 3 3 4 3 3 3
7 7 6 5 5 4 3 2 2 2 1 1 1 1 2 3 3 3 2 2 2 1 1 1 1 1 1 1 2 1 2 3 2 1 1 2 2 2 2 4 3 4 3
8 8 7 6 5 5 4 2 2 2 2 1 1 0 1 2 2 1 2 2 2 2 2 2 2 2 1 1 1 3 2 2 2 3 2 1 1 1 2 2 3 3 4
9 8 6 6 6 5 4 4 4 3 2 2 2 1 1 1 2 2 1 1 2 2 1 2 2 2 2 1 1 1 2 3 1 2 3 2 2 2 2 2 3 3 3
9 8 6 6 5 5 5 5 4 3 2 2 1 1 1 1 1 1 1 1 1 1 1 1 1 1 2 2 1 1 1 1 1 2 2 3 2 2 2 2 2 2 3
7 6 6 6 5 4 5 5 5 5 4 3 2 2 1 1 1 1 1 1 2 1 2 2 2 1 1 1 1 1 1 1 2 2 2 2 2 3 2 2 2 3 3
Wind_Direction
147 152 131 122 117 116 114 110 102 103 112 118 121 119 120 122 125 129 133 136 137 139 139 140 139 137 133 129 128 127 128 130 128 127 125 121 119 117 116 115 117 118 119
155 149 130 121 117 116 116 113 109 106 109 114 115 116 119 123 126 130 133 137 139 141 142 143 142 140 137 133 131 131 131 131 127 127 125 122 122 122 121 123 123 125 125
138 139 131 123 119 117 116 113 112 112 112 114 115 116 120 123 128 132 136 138 140 142 143 145 144 142 140 137 136 135 134 131 129 130 125 114 122 127 128 128 130 131 130
134 135 132 127 123 120 118 116 115 114 114 115 117 119 121 124 127 133 138 140 141 143 144 146 146 144 141 139 140 138 137 139 139 137 129 132 138 134 134 133 136 140 139
128 133 138 132 126 124 121 119 117 117 117 118 118 117 118 121 125 132 138 142 143 145 149 149 149 147 144 144 142 140 143 148 147 141 135 140 144 150 146 145 147 148 150
132 138 141 134 130 127 125 123 121 119 117 117 117 116 117 119 125 134 138 142 144 148 152 152 152 152 150 148 145 145 152 151 146 139 141 155 159 163 159 160 158 158 163
140 144 143 138 135 132 129 127 124 121 118 116 115 118 121 124 129 135 138 142 145 148 151 153 154 153 149 146 148 149 153 152 147 144 154 162 169 171 170 170 169 169 175
145 145 145 144 140 137 134 133 130 126 123 121 118 121 121 121 124 131 135 141 146 147 150 153 156 152 148 149 150 152 149 152 150 152 158 173 172 176 178 177 175 179 181
139 140 140 146 144 141 141 141 138 134 131 128 126 126 125 125 126 127 135 140 147 148 149 150 152 153 158 157 154 153 150 152 148 161 174 180 184 183 183 181 183 187 186
136 142 147 146 141 144 147 152 147 144 140 136 136 135 133 135 134 133 134 138 144 146 148 152 155 158 164 161 159 156 149 145 148 164 171 186 189 188 187 182 183 184 186
140 153 154 155 157 159 157 158 152 150 149 143 144 146 141 129 130 135 139 145 149 147 147 156 162 164 166 169 169 162 155 147 163 166 174 182 181 183 179 174 176 178 181
151 159 161 162 171 171 169 155 155 151 145 137 135 140 134 132 139 141 144 146 147 149 152 157 157 155 160 166 174 169 167 151 160 173 176 175 181 183 179 175 176 178 179
155 152 153 160 169 172 160 155 159 150 141 139 137 138 135 130 129 122 126 134 134 141 140 139 131 98 132 171 181 175 173 163 173 192 188 187 190 191 187 184 185 186 185
135 143 149 153 155 158 150 157 155 151 146 146 144 135 135 131 133 137 138 144 134 131 134 131 127 146 217 215 184 181 182 176 178 189 197 194 195 194 194 191 190 193 192
131 136 138 136 140 146 140 147 143 149 147 152 140 141 139 142 147 144 145 150 149 147 152 166 176 199 213 240 201 186 183 178 188 188 200 202 198 199 203 197 196 200 197
141 144 143 131 130 126 124 127 133 137 139 132 132 140 142 142 144 142 146 151 165 169 175 184 194 201 216 215 212 204 189 188 199 199 199 206 205 205 205 204 205 209 206
147 144 145 141 122 119 121 126 128 131 130 131 138 136 137 143 149 144 144 158 178 164 157 157 202 212 211 206 207 214 203 203 206 209 205 207 217 212 208 208 212 215 215
140 139 145 137 124 123 123 124 123 128 128 134 139 137 152 157 151 141 146 169 170 144 145 161 179 190 213 212 223 233 217 214 216 212 205 211 217 225 221 219 218 220 222
145 141 135 125 130 133 125 121 119 118 122 130 132 142 152 147 141 147 159 169 164 152 172 193 167 176 195 230 236 240 234 221 218 217 209 212 215 222 223 225 222 223 227
145 142 140 134 135 129 112 100 92 87 97 111 128 149 152 141 144 149 154 167 157 141 189 197 185 194 200 211 245 273 259 237 211 217 217 216 219 222 220 225 223 231 231
143 145 149 144 144 131 116 117 118 124 127 124 138 147 145 155 160 149 156 162 149 160 198 199 171 189 224 158 67 340 321 291 238 226 224 223 228 225 216 217 217 225 238
157 158 158 158 156 157 155 152 150 144 142 137 117 116 153 164 158 154 155 170 166 167 205 207 162 170 213 157 138 102 343 338 326 264 215 209 222 216 214 218 219 222 228
167 170 169 170 166 164 154 129 107 82 69 64 82 152 197 174 167 162 172 170 173 171 193 210 186 172 202 245 167 152 155 241 299 314 285 253 232 225 233 221 214 227 228
176 175 171 170 167 165 152 143 143 144 160 195 192 194 194 166 165 165 169 181 186 177 186 220 195 176 164 218 267 205 186 178 177 298 313 299 270 242 232 222 219 222 225
173 170 170 165 166 161 153 152 148 151 167 167 156 165 196 228 199 191 181 187 193 187 195 208 203 183 174 187 203 222 205 185 168 179 275 305 316 288 249 230 223 218 222
163 157 159 160 168 166 158 152 152 154 155 149 157 179 217 260 268 252 222 210 207 203 204 202 201 197 190 187 194 189 180 188 204 185 227 265 282 286 276 248 228 224 219